{"data":{"norad_id":53976,"intl_designator":"2022-125N","name":"STARLINK-5134","alt_names":[],"object_type":"PAYLOAD","status":"ACTIVE","operator":null,"country":"US","launch_date":"2022-10-05","launch_site_code":"AFWTR","launch_vehicle":null,"mission":null,"orbit_class":"UNKNOWN","rcs_meters":null,"size_class":null,"mass_kg":null,"dimensions":null,"purposes":["comms"],"wikipedia_slug":null,"has_3d_model":false,"image_url":null,"decayed_at":null,"tle_current":{"epoch":"2026-09-20T22:27:18.373248Z","epoch_age_seconds":48923,"freshness":"FRESH","line1":"1 53976U 22125N   26263.93562932  .00059448  00000+0  17317-2 0  9990","line2":"2 53976  53.1609  35.3972 0001187 122.6343 237.4775 15.34852351219243","mean_motion":15.34852351,"eccentricity":0.0001187,"inclination_deg":53.1609,"raan_deg":35.3972,"arg_perigee_deg":122.6343,"mean_anomaly_deg":237.4775,"bstar":0.0017317,"rev_number":21924,"period_min":93.82009931195,"perigee_km":460.54723973603,"apogee_km":462.17093610731,"semimajor_km":6839.4960879217,"source":"CELESTRAK","updated_at":"2026-09-21T09:00:33.041245Z"}}}